Regional Weather Roundup
Issued by NWS

Home | Current Version | Previous Version | Text Only | Print | Product List | Glossary Off
Versions: 1 2 3 4 5 6 7 8 9 10 11 12 13 14 15 16 17 18 19 20 21 22 23 24 25 26 27 28 29 30 31 32 33 34 35 36 37 38 39 40 41 42 43 44 45 46 47 48 49 50

000
ASUS43 KFSD 280710
RWRSD

WEATHER ROUNDUP FOR SOUTH DAKOTA
NATIONAL WEATHER SERVICE SIOUX FALLS SD
200 AM CDT SUN MAY 28 2017

NOTE: "FAIR" INDICATES FEW OR NO CLOUDS BELOW 12,000 FEET WITH NO
SIGNIFICANT WEATHER AND/OR OBSTRUCTIONS TO VISIBILITY.


SDZ001>005-009-010-012>017-280800-
NORTHWEST AND NORTH CENTRAL SOUTH DAKOTA

CITY           SKY/WX    TMP DP  RH WIND       PRES   REMARKS
BUFFALO          N/A     53  45  74 W12       29.93S
FAITH            N/A     54  46  74 W14       29.95S
MOBRIDGE       PTCLDY    45  41  86 CALM      29.86S
$$

SDZ012>016-024>037-041>051-057-063-072>074-280800-
SOUTHWEST AND SOUTH CENTRAL SOUTH DAKOTA

CITY           SKY/WX    TMP DP  RH WIND       PRES   REMARKS
RAPID CTY ARPT CLEAR     53  39  59 W9        30.04S
PIERRE         CLEAR     56  44  64 W9        29.90F
CUSTER         CLEAR     48  34  58 NW6       30.14F
ELLSWORTH AFB  CLEAR     52  41  66 W10       30.03F
PHILIP         PTCLDY    51  43  74 SW9       29.97F
PINE RIDGE     PTCLDY    48  45  89 SW7       30.07S
WINNER         FAIR      52  45  77 SW7       29.95S
$$

SDZ004>011-016>023-039-040-280800-
NORTHEAST SOUTH DAKOTA

CITY           SKY/WX    TMP DP  RH WIND       PRES   REMARKS
ABERDEEN       CLEAR     52  44  74 NW8       29.85R
WATERTOWN      CLEAR     50  45  83 W9        29.82R
BROOKINGS      PTCLDY    56  50  80 W12       29.84F
SISSETON         N/A     53  48  83 NW13      29.80R
$$

SDZ017-020-022-023-036>040-048>070-280800-
SOUTHEAST SOUTH DAKOTA

CITY           SKY/WX    TMP DP  RH WIND       PRES   REMARKS
SIOUX FALLS    CLEAR     56  52  86 SW5       29.86F
HURON          CLEAR     49  44  83 W8        29.86S
CHAMBERLAIN    CLEAR     55  46  70 W7        29.92S
MITCHELL       PTCLDY    56  49  77 W8        29.88F
YANKTON        CLEAR     55  51  86 SW8       29.88F
$$

ABBREVIATIONS USED IN REMARKS
   TC - TEMPERATURE IN CELSIUS
  WCI - WIND CHILL INDEX
   HX - HEAT INDEX
  VSB - VISIBILITY





USA.gov is the U.S. government's official web portal to all federal, state and local government web resources and services.